| time (UTC) | temp F | wind direction | speed MPH | gust MPH | rain 1hr in | rain 24hr in | rain mn in | humidity % | barometer mb |
| 20260903125039 | 73 | 76 | 3.0 | 5.0 | 0.00 | 0.00 | 0.00 | 87 | 1014.0 |
| 20260903124538 | 73 | 155 | 1.0 | 2.0 | 0.00 | 0.00 | 0.00 | 87 | 1013.7 |
| 20260903124033 | 73 | 107 | 1.0 | 3.0 | 0.00 | 0.00 | 0.00 | 87 | 1013.8 |
| 20260903123532 | 73 | 133 | 0.0 | 6.0 | 0.00 | 0.00 | 0.00 | 87 | 1013.5 |
| 20260903123031 | 73 | 123 | 1.0 | 5.0 | 0.00 | 0.00 | 0.00 | 87 | 1013.7 |
| 20260903122530 | 73 | 114 | 0.0 | 3.0 | 0.00 | 0.00 | 0.00 | 88 | 1013.6 |
| 20260903122025 | 72 | 187 | 4.0 | 7.0 | 0.00 | 0.00 | 0.00 | 88 | 1013.8 |
| 20260903121520 | 73 | 187 | 3.0 | 6.0 | 0.00 | 0.00 | 0.00 | 90 | 1014.0 |
| 20260903121016 | 73 | 111 | 2.0 | 8.0 | 0.00 | 0.00 | 0.00 | 89 | 1014.5 |
| 20260903120514 | 74 | 158 | 3.0 | 9.0 | 0.00 | 0.00 | 0.00 | 87 | 1014.2 |
| 20260903120009 | 74 | 196 | 5.0 | 7.0 | 0.00 | 0.00 | 0.00 | 89 | 1014.0 |
| 20260903115507 | 74 | 132 | 2.0 | 6.0 | 0.00 | 0.00 | 0.00 | 89 | 1014.2 |
| 20260903115002 | 74 | 109 | 3.0 | 6.0 | 0.00 | 0.00 | 0.00 | 89 | 1013.9 |
| 20260903114457 | 73 | 155 | 4.0 | 6.0 | 0.00 | 0.00 | 0.00 | 90 | 1014.0 |
| 20260903113953 | 73 | 135 | 2.0 | 3.0 | 0.00 | 0.00 | 0.00 | 92 | 1013.6 |
| 20260903113448 | 73 | 235 | 2.0 | 3.0 | 0.00 | 0.00 | 0.00 | 93 | 1013.8 |
| 20260903112944 | 72 | 135 | 0.0 | 1.0 | 0.00 | 0.00 | 0.00 | 94 | 1013.8 |
| 20260903112440 | 72 | 139 | 0.0 | 2.0 | 0.00 | 0.00 | 0.00 | 95 | 1013.8 |
| 20260903111939 | 72 | 116 | 0.0 | 3.0 | 0.00 | 0.00 | 0.00 | 96 | 1013.8 |
| 20260903111433 | 71 | 127 | 0.0 | 1.0 | 0.00 | 0.00 | 0.00 | 96 | 1013.5 |
| 20260903110929 | 71 | 97 | 1.0 | 5.0 | 0.00 | 0.00 | 0.00 | 96 | 1013.8 |
| 20260903110425 | 71 | 99 | 0.0 | 0.0 | 0.00 | 0.00 | 0.00 | 96 | 1013.6 |
| 20260903105919 | 71 | 289 | 0.0 | 1.0 | 0.00 | 0.00 | 0.00 | 96 | 1014.0 |
| 20260903105415 | 71 | 128 | 0.0 | 0.0 | 0.00 | 0.00 | 0.00 | 96 | 1014.0 |
| 20260903104914 | 71 | 94 | 1.0 | 2.0 | 0.00 | 0.00 | 0.00 | 96 | 1014.3 |
| 20260903104408 | 71 | 11 | 1.0 | 2.0 | 0.00 | 0.00 | 0.00 | 95 | 1014.1 |
| 20260903103906 | 71 | 109 | 0.0 | 2.0 | 0.00 | 0.00 | 0.00 | 95 | 1014.1 |
| 20260903103401 | 71 | 103 | 0.0 | 3.0 | 0.00 | 0.00 | 0.00 | 95 | 1014.1 |
| 20260903102856 | 71 | 102 | 0.0 | 1.0 | 0.00 | 0.00 | 0.00 | 95 | 1013.8 |
| 20260903102351 | 71 | 92 | 0.0 | 1.0 | 0.00 | 0.00 | 0.00 | 95 | 1014.0 |
| 20260903101851 | 71 | 357 | 1.0 | 1.0 | 0.00 | 0.00 | 0.00 | 95 | 1013.9 |
| 20260903101346 | 71 | 95 | 0.0 | 2.0 | 0.00 | 0.00 | 0.00 | 95 | 1013.7 |
| 20260903100841 | 71 | 56 | 0.0 | 1.0 | 0.00 | 0.00 | 0.00 | 95 | 1013.7 |
| 20260903100341 | 71 | 79 | 1.0 | 1.0 | 0.00 | 0.00 | 0.00 | 95 | 1013.7 |
| 20260903095833 | 71 | 100 | 0.0 | 5.0 | 0.00 | 0.00 | 0.00 | 95 | 1013.5 |
| 20260903095332 | 71 | 102 | 0.0 | 3.0 | 0.00 | 0.00 | 0.00 | 95 | 1013.6 |
| 20260903094828 | 71 | 83 | 0.0 | 1.0 | 0.00 | 0.00 | 0.00 | 95 | 1013.6 |
| 20260903094322 | 71 | 95 | 0.0 | 0.0 | 0.00 | 0.00 | 0.00 | 94 | 1013.6 |
| 20260903093819 | 71 | 99 | 0.0 | 1.0 | 0.00 | 0.00 | 0.00 | 94 | 1013.8 |
| 20260903093313 | 71 | 354 | 1.0 | 1.0 | 0.00 | 0.00 | 0.00 | 94 | 1013.7 |
| 20260903092808 | 71 | 73 | 1.0 | 2.0 | 0.00 | 0.00 | 0.00 | 94 | 1013.5 |
| 20260903092306 | 71 | 62 | 0.0 | 1.0 | 0.00 | 0.00 | 0.00 | 94 | 1013.5 |
| 20260903091802 | 71 | 53 | 0.0 | 0.0 | 0.00 | 0.00 | 0.00 | 94 | 1013.4 |
| 20260903091255 | 72 | 72 | 0.0 | 1.0 | 0.00 | 0.00 | 0.00 | 94 | 1013.4 |
| 20260903090752 | 72 | 82 | 0.0 | 2.0 | 0.00 | 0.00 | 0.00 | 94 | 1013.5 |
| 20260903090251 | 72 | 103 | 0.0 | 1.0 | 0.00 | 0.00 | 0.00 | 93 | 1013.4 |
| 20260903085750 | 72 | 93 | 0.0 | 1.0 | 0.00 | 0.00 | 0.00 | 93 | 1013.3 |
| 20260903085249 | 72 | 306 | 2.0 | 2.0 | 0.00 | 0.00 | 0.00 | 93 | 1013.6 |
| 20260903084748 | 72 | 21 | 0.0 | 2.0 | 0.00 | 0.00 | 0.00 | 93 | 1013.5 |
| 20260903084237 | 72 | 36 | 1.0 | 2.0 | 0.00 | 0.00 | 0.00 | 93 | 1013.4 |
| 20260903083733 | 72 | 23 | 0.0 | 2.0 | 0.00 | 0.00 | 0.00 | 93 | 1013.4 |
| 20260903083227 | 72 | 96 | 0.0 | 1.0 | 0.00 | 0.00 | 0.00 | 93 | 1013.4 |
| 20260903082726 | 72 | 52 | 2.0 | 2.0 | 0.00 | 0.00 | 0.00 | 92 | 1013.6 |
| 20260903082223 | 72 | 348 | 1.0 | 1.0 | 0.00 | 0.00 | 0.00 | 92 | 1013.5 |
| 20260903081722 | 72 | 16 | 0.0 | 1.0 | 0.00 | 0.00 | 0.00 | 92 | 1013.5 |
| 20260903081218 | 72 | 75 | 0.0 | 2.0 | 0.00 | 0.00 | 0.00 | 92 | 1013.4 |
| 20260903080714 | 73 | 80 | 0.0 | 1.0 | 0.00 | 0.00 | 0.00 | 91 | 1013.4 |
| 20260903080212 | 73 | 91 | 0.0 | 1.0 | 0.00 | 0.00 | 0.00 | 91 | 1013.5 |
| 20260903075710 | 73 | 100 | 0.0 | 1.0 | 0.00 | 0.00 | 0.00 | 91 | 1013.8 |
| 20260903075206 | 73 | 76 | 0.0 | 1.0 | 0.00 | 0.00 | 0.00 | 91 | 1013.6 |
| 20260903074704 | 73 | 107 | 1.0 | 2.0 | 0.00 | 0.00 | 0.00 | 91 | 1013.7 |
| 20260903074200 | 73 | 122 | 0.0 | 0.0 | 0.00 | 0.00 | 0.00 | 90 | 1013.8 |
| 20260903073655 | 73 | 39 | 0.0 | 2.0 | 0.00 | 0.00 | 0.00 | 90 | 1013.7 |
| 20260903073150 | 73 | 10 | 1.0 | 1.0 | 0.00 | 0.00 | 0.00 | 90 | 1013.9 |
| 20260903072646 | 73 | 118 | 0.0 | 1.0 | 0.00 | 0.00 | 0.00 | 90 | 1013.9 |
| 20260903072143 | 73 | 107 | 0.0 | 3.0 | 0.00 | 0.00 | 0.00 | 90 | 1013.9 |
| 20260903071639 | 73 | 314 | 2.0 | 2.0 | 0.00 | 0.00 | 0.00 | 90 | 1014.1 |
| 20260903071134 | 73 | 116 | 0.0 | 0.0 | 0.00 | 0.00 | 0.00 | 90 | 1014.0 |
| 20260903070634 | 73 | 94 | 0.0 | 2.0 | 0.00 | 0.00 | 0.00 | 89 | 1014.0 |
| 20260903070130 | 73 | 325 | 1.0 | 2.0 | 0.00 | 0.00 | 0.00 | 89 | 1014.2 |
| 20260903065629 | 73 | 93 | 0.0 | 1.0 | 0.00 | 0.00 | 0.00 | 89 | 1014.2 |
| 20260903065124 | 73 | 305 | 0.0 | 1.0 | 0.00 | 0.00 | 0.00 | 89 | 1014.2 |
| 20260903064618 | 73 | 105 | 0.0 | 1.0 | 0.00 | 0.00 | 0.00 | 89 | 1014.0 |
| 20260903064114 | 73 | 5 | 2.0 | 2.0 | 0.00 | 0.00 | 0.00 | 89 | 1014.2 |
| 20260903063609 | 73 | 11 | 1.0 | 2.0 | 0.00 | 0.00 | 0.00 | 89 | 1014.0 |
| 20260903063104 | 73 | 89 | 1.0 | 1.0 | 0.00 | 0.00 | 0.00 | 89 | 1014.3 |
| 20260903062559 | 73 | 74 | 0.0 | 0.0 | 0.00 | 0.00 | 0.00 | 88 | 1014.1 |
| 20260903062054 | 74 | 106 | 0.0 | 1.0 | 0.00 | 0.00 | 0.00 | 88 | 1014.1 |
| 20260903061550 | 74 | 102 | 0.0 | 0.0 | 0.00 | 0.00 | 0.00 | 88 | 1014.3 |
| 20260903061049 | 74 | 92 | 0.0 | 1.0 | 0.00 | 0.00 | 0.00 | 87 | 1014.4 |
| 20260903060549 | 74 | 101 | 0.0 | 0.0 | 0.00 | 0.00 | 0.00 | 87 | 1014.2 |
| 20260903060044 | 74 | 92 | 0.0 | 1.0 | 0.00 | 0.00 | 0.00 | 87 | 1014.3 |
| 20260903055541 | 74 | 104 | 0.0 | 0.0 | 0.00 | 0.00 | 0.00 | 87 | 1014.3 |
| 20260903055040 | 74 | 38 | 0.0 | 1.0 | 0.00 | 0.00 | 0.00 | 87 | 1014.2 |
| 20260903054536 | 75 | 106 | 0.0 | 1.0 | 0.00 | 0.00 | 0.00 | 86 | 1014.1 |
| 20260903054031 | 75 | 76 | 0.0 | 1.0 | 0.00 | 0.00 | 0.00 | 86 | 1014.0 |
| 20260903053526 | 75 | 104 | 0.0 | 0.0 | 0.00 | 0.00 | 0.00 | 86 | 1014.3 |
| 20260903053023 | 75 | 66 | 1.0 | 3.0 | 0.00 | 0.00 | 0.00 | 86 | 1014.1 |
| 20260903052518 | 75 | 51 | 1.0 | 1.0 | 0.00 | 0.00 | 0.00 | 85 | 1014.1 |
| 20260903052014 | 75 | 87 | 0.0 | 1.0 | 0.00 | 0.00 | 0.00 | 85 | 1014.1 |
| 20260903051508 | 75 | 273 | 1.0 | 1.0 | 0.00 | 0.00 | 0.00 | 85 | 1014.4 |
| 20260903051004 | 75 | 43 | 1.0 | 2.0 | 0.00 | 0.00 | 0.00 | 84 | 1014.2 |
| 20260903050503 | 76 | 114 | 0.0 | 2.0 | 0.00 | 0.00 | 0.00 | 84 | 1014.3 |
| 20260903045957 | 76 | 39 | 1.0 | 2.0 | 0.00 | 0.06 | 0.06 | 84 | 1014.4 |
| 20260903045453 | 76 | 51 | 0.0 | 1.0 | 0.00 | 0.06 | 0.06 | 84 | 1014.4 |
| 20260903044949 | 76 | 68 | 0.0 | 1.0 | 0.00 | 0.06 | 0.06 | 83 | 1014.6 |
| 20260903044445 | 76 | 347 | 1.0 | 2.0 | 0.00 | 0.06 | 0.06 | 83 | 1014.4 |
| 20260903043941 | 76 | 49 | 1.0 | 2.0 | 0.00 | 0.06 | 0.06 | 83 | 1014.4 |
| 20260903043437 | 76 | 115 | 0.0 | 1.0 | 0.00 | 0.06 | 0.06 | 83 | 1014.5 |
| 20260903042935 | 76 | 108 | 0.0 | 1.0 | 0.00 | 0.06 | 0.06 | 83 | 1014.4 |
| 20260903042430 | 76 | 116 | 0.0 | 1.0 | 0.00 | 0.06 | 0.06 | 83 | 1014.4 |
| 20260903041926 | 76 | 345 | 1.0 | 2.0 | 0.00 | 0.06 | 0.06 | 83 | 1014.4 |
| 20260903041422 | 76 | 101 | 0.0 | 2.0 | 0.00 | 0.06 | 0.06 | 83 | 1014.4 |
| 20260903040918 | 77 | 110 | 0.0 | 1.0 | 0.00 | 0.06 | 0.06 | 82 | 1014.4 |
| 20260903040416 | 77 | 136 | 1.0 | 1.0 | 0.00 | 0.06 | 0.06 | 82 | 1014.5 |
| 20260903035913 | 77 | 65 | 0.0 | 2.0 | 0.00 | 0.06 | 0.06 | 81 | 1014.5 |
| 20260903035408 | 77 | 222 | 1.0 | 3.0 | 0.00 | 0.06 | 0.06 | 81 | 1014.7 |
| 20260903034903 | 77 | 122 | 0.0 | 2.0 | 0.00 | 0.06 | 0.06 | 81 | 1014.7 |
| 20260903034358 | 77 | 113 | 0.0 | 3.0 | 0.00 | 0.06 | 0.06 | 82 | 1014.7 |
| 20260903033853 | 77 | 3 | 2.0 | 3.0 | 0.00 | 0.06 | 0.06 | 82 | 1014.7 |
| 20260903033348 | 77 | 20 | 1.0 | 2.0 | 0.00 | 0.06 | 0.06 | 82 | 1014.7 |
| 20260903032848 | 77 | 125 | 0.0 | 2.0 | 0.00 | 0.06 | 0.06 | 82 | 1014.8 |
| 20260903032344 | 77 | 111 | 0.0 | 2.0 | 0.00 | 0.06 | 0.06 | 82 | 1014.8 |
| 20260903031839 | 77 | 95 | 0.0 | 2.0 | 0.00 | 0.06 | 0.06 | 82 | 1014.7 |
| 20260903031338 | 77 | 112 | 0.0 | 1.0 | 0.00 | 0.06 | 0.06 | 82 | 1014.7 |
| 20260903030834 | 77 | 80 | 0.0 | 3.0 | 0.00 | 0.06 | 0.06 | 82 | 1014.8 |
| 20260903030330 | 77 | 58 | 1.0 | 1.0 | 0.00 | 0.06 | 0.06 | 82 | 1014.7 |
| 20260903025826 | 77 | 122 | 0.0 | 2.0 | 0.00 | 0.06 | 0.06 | 81 | 1014.9 |
| 20260903025321 | 78 | 148 | 0.0 | 1.0 | 0.00 | 0.06 | 0.06 | 81 | 1014.7 |
| 20260903024821 | 78 | 90 | 1.0 | 2.0 | 0.00 | 0.06 | 0.06 | 80 | 1014.3 |
| 20260903024320 | 78 | 55 | 1.0 | 2.0 | 0.00 | 0.06 | 0.06 | 80 | 1014.6 |
| 20260903023816 | 78 | 15 | 0.0 | 1.0 | 0.00 | 0.06 | 0.06 | 80 | 1014.6 |
| 20260903023311 | 78 | 110 | 0.0 | 1.0 | 0.00 | 0.06 | 0.06 | 78 | 1014.6 |
| 20260903022806 | 78 | 126 | 0.0 | 2.0 | 0.00 | 0.06 | 0.06 | 78 | 1014.4 |
| 20260903022306 | 78 | 159 | 0.0 | 1.0 | 0.00 | 0.06 | 0.06 | 77 | 1014.5 |
| 20260903021759 | 78 | 275 | 0.0 | 1.0 | 0.00 | 0.06 | 0.06 | 77 | 1014.6 |
| 20260903021255 | 79 | 136 | 0.0 | 1.0 | 0.00 | 0.06 | 0.06 | 77 | 1014.6 |
| 20260903020754 | 79 | 257 | 0.0 | 2.0 | 0.00 | 0.06 | 0.06 | 75 | 1014.5 |
| 20260903020249 | 79 | 254 | 1.0 | 1.0 | 0.00 | 0.06 | 0.06 | 75 | 1014.5 |
| 20260903015744 | 78 | 291 | 1.0 | 1.0 | 0.00 | 0.06 | 0.06 | 76 | 1014.5 |
| 20260903015240 | 79 | 302 | 1.0 | 1.0 | 0.00 | 0.06 | 0.06 | 76 | 1014.4 |
| 20260903014735 | 79 | 333 | 1.0 | 1.0 | 0.00 | 0.06 | 0.06 | 77 | 1014.4 |
| 20260903014229 | 79 | 234 | 0.0 | 0.0 | 0.00 | 0.06 | 0.06 | 77 | 1014.2 |
| 20260903013724 | 79 | 152 | 0.0 | 0.0 | 0.00 | 0.06 | 0.06 | 76 | 1013.9 |
| 20260903013223 | 79 | 233 | 0.0 | 0.0 | 0.00 | 0.06 | 0.06 | 76 | 1014.1 |
| 20260903012722 | 79 | 208 | 0.0 | 0.0 | 0.00 | 0.06 | 0.06 | 75 | 1014.1 |
| 20260903012221 | 80 | 209 | 0.0 | 1.0 | 0.00 | 0.06 | 0.06 | 75 | 1014.1 |
| 20260903011716 | 80 | 229 | 0.0 | 0.0 | 0.00 | 0.06 | 0.06 | 74 | 1014.0 |
| 20260903011216 | 80 | 216 | 0.0 | 0.0 | 0.00 | 0.06 | 0.06 | 74 | 1013.9 |
| 20260903010712 | 80 | 215 | 0.0 | 0.0 | 0.00 | 0.06 | 0.06 | 73 | 1014.1 |
| 20260903010211 | 81 | 197 | 0.0 | 0.0 | 0.00 | 0.06 | 0.06 | 73 | 1013.8 |
| 20260903005710 | 81 | 251 | 0.0 | 0.0 | 0.00 | 0.06 | 0.06 | 72 | 1014.0 |
| 20260903005205 | 81 | 212 | 0.0 | 0.0 | 0.00 | 0.06 | 0.06 | 71 | 1013.8 |
| 20260903004701 | 82 | 106 | 0.0 | 0.0 | 0.00 | 0.06 | 0.06 | 71 | 1013.9 |
| 20260903004155 | 82 | 181 | 0.0 | 0.0 | 0.00 | 0.06 | 0.06 | 70 | 1013.9 |
| 20260903003651 | 83 | 209 | 0.0 | 0.0 | 0.00 | 0.06 | 0.06 | 68 | 1014.2 |
| 20260903003147 | 83 | 184 | 0.0 | 0.0 | 0.00 | 0.06 | 0.06 | 67 | 1013.6 |
| 20260903002642 | 85 | 178 | 0.0 | 0.0 | 0.00 | 0.06 | 0.06 | 65 | 1014.0 |
| 20260903002136 | 86 | 198 | 0.0 | 0.0 | 0.00 | 0.06 | 0.06 | 64 | 1013.8 |
| 20260903001631 | 86 | 185 | 0.0 | 0.0 | 0.00 | 0.06 | 0.06 | 62 | 1013.8 |
| 20260903001125 | 86 | 149 | 0.0 | 1.0 | 0.00 | 0.06 | 0.06 | 63 | 1013.7 |
| 20260903000621 | 86 | 165 | 0.0 | 1.0 | 0.00 | 0.06 | 0.06 | 62 | 1013.8 |
| 20260903000120 | 86 | 136 | 1.0 | 1.0 | 0.00 | 0.06 | 0.06 | 61 | 1013.8 |
| 20260902235618 | 86 | 194 | 0.0 | 1.0 | 0.00 | 0.06 | 0.06 | 60 | 1013.7 |
| 20260902235114 | 86 | 175 | 0.0 | 0.0 | 0.00 | 0.06 | 0.06 | 61 | 1013.7 |
| 20260902234608 | 86 | 162 | 0.0 | 1.0 | 0.00 | 0.06 | 0.06 | 60 | 1014.1 |
| 20260902234106 | 86 | 191 | 0.0 | 1.0 | 0.00 | 0.06 | 0.06 | 61 | 1013.9 |
| 20260902233602 | 86 | 161 | 2.0 | 2.0 | 0.00 | 0.06 | 0.06 | 61 | 1014.1 |
| 20260902233056 | 86 | 190 | 2.0 | 3.0 | 0.00 | 0.06 | 0.06 | 61 | 1014.0 |
| 20260902232555 | 86 | 117 | 0.0 | 1.0 | 0.00 | 0.06 | 0.06 | 61 | 1013.8 |
| 20260902232050 | 86 | 125 | 1.0 | 1.0 | 0.00 | 0.06 | 0.06 | 61 | 1014.0 |
| 20260902231544 | 86 | 145 | 1.0 | 2.0 | 0.00 | 0.06 | 0.06 | 61 | 1013.9 |
| 20260902231044 | 86 | 85 | 0.0 | 3.0 | 0.00 | 0.06 | 0.06 | 61 | 1013.9 |
| 20260902230539 | 87 | 140 | 0.0 | 1.0 | 0.00 | 0.06 | 0.06 | 60 | 1013.7 |
| 20260902230038 | 86 | 62 | 1.0 | 3.0 | 0.00 | 0.06 | 0.06 | 60 | 1014.0 |
| 20260902225534 | 87 | 187 | 0.0 | 1.0 | 0.00 | 0.06 | 0.06 | 59 | 1014.0 |
| 20260902225033 | 87 | 123 | 1.0 | 1.0 | 0.00 | 0.06 | 0.06 | 59 | 1014.2 |
| 20260902224532 | 87 | 106 | 0.0 | 1.0 | 0.00 | 0.06 | 0.06 | 58 | 1013.8 |
| 20260902224028 | 87 | 187 | 0.0 | 3.0 | 0.00 | 0.06 | 0.06 | 59 | 1013.9 |
| 20260902223524 | 87 | 174 | 1.0 | 3.0 | 0.00 | 0.06 | 0.06 | 59 | 1014.0 |
| 20260902223023 | 86 | 193 | 0.0 | 0.0 | 0.00 | 0.06 | 0.06 | 60 | 1014.0 |
| 20260902222522 | 87 | 186 | 2.0 | 3.0 | 0.00 | 0.06 | 0.06 | 58 | 1014.1 |
| 20260902222020 | 87 | 170 | 1.0 | 2.0 | 0.00 | 0.06 | 0.06 | 58 | 1014.3 |
| 20260902221515 | 87 | 184 | 1.0 | 3.0 | 0.00 | 0.06 | 0.06 | 58 | 1014.0 |
| 20260902221010 | 87 | 167 | 1.0 | 2.0 | 0.00 | 0.06 | 0.06 | 57 | 1014.0 |
| 20260902220505 | 87 | 173 | 2.0 | 2.0 | 0.00 | 0.06 | 0.06 | 58 | 1014.1 |
| 20260902220000 | 87 | 164 | 1.0 | 3.0 | 0.00 | 0.06 | 0.06 | 58 | 1014.1 |
| 20260902215456 | 86 | 195 | 0.0 | 1.0 | 0.00 | 0.06 | 0.06 | 58 | 1014.3 |
| 20260902214952 | 87 | 202 | 0.0 | 2.0 | 0.00 | 0.06 | 0.06 | 58 | 1014.1 |
| 20260902214450 | 87 | 175 | 0.0 | 2.0 | 0.00 | 0.06 | 0.06 | 59 | 1013.9 |
| 20260902213944 | 87 | 232 | 2.0 | 3.0 | 0.00 | 0.06 | 0.06 | 58 | 1014.3 |
| 20260902213441 | 87 | 169 | 1.0 | 3.0 | 0.00 | 0.06 | 0.06 | 59 | 1014.2 |
| 20260902212939 | 87 | 183 | 2.0 | 3.0 | 0.00 | 0.06 | 0.06 | 58 | 1014.1 |
| 20260902212436 | 87 | 167 | 2.0 | 2.0 | 0.00 | 0.06 | 0.06 | 58 | 1013.9 |
| 20260902211932 | 88 | 274 | 2.0 | 5.0 | 0.00 | 0.06 | 0.06 | 56 | 1014.3 |
| 20260902211427 | 88 | 234 | 1.0 | 3.0 | 0.00 | 0.06 | 0.06 | 57 | 1014.2 |
| 20260902210923 | 87 | 219 | 1.0 | 2.0 | 0.00 | 0.06 | 0.06 | 59 | 1014.3 |
| 20260902210423 | 87 | 358 | 3.0 | 3.0 | 0.00 | 0.06 | 0.06 | 58 | 1014.1 |
| 20260902205920 | 87 | 203 | 0.0 | 3.0 | 0.00 | 0.06 | 0.06 | 57 | 1014.3 |
| 20260902205416 | 87 | 186 | 0.0 | 1.0 | 0.00 | 0.06 | 0.06 | 59 | 1014.3 |
| 20260902204911 | 86 | 232 | 2.0 | 5.0 | 0.00 | 0.06 | 0.06 | 60 | 1014.4 |
| 20260902204410 | 87 | 64 | 1.0 | 5.0 | 0.00 | 0.06 | 0.06 | 59 | 1014.3 |
| 20260902203901 | 87 | 220 | 0.0 | 2.0 | 0.00 | 0.06 | 0.06 | 58 | 1014.2 |
| 20260902203356 | 87 | 142 | 0.0 | 2.0 | 0.00 | 0.06 | 0.06 | 58 | 1014.3 |
| 20260902202850 | 86 | 188 | 0.0 | 3.0 | 0.00 | 0.06 | 0.06 | 59 | 1014.4 |
| 20260902202346 | 87 | 2 | 1.0 | 2.0 | 0.00 | 0.06 | 0.06 | 58 | 1014.2 |
| 20260902201842 | 86 | 334 | 2.0 | 3.0 | 0.00 | 0.06 | 0.06 | 60 | 1014.6 |
| 20260902201342 | 86 | 143 | 2.0 | 2.0 | 0.00 | 0.06 | 0.06 | 59 | 1014.6 |
| 20260902200837 | 86 | 352 | 3.0 | 6.0 | 0.00 | 0.06 | 0.06 | 60 | 1014.7 |
| 20260902200332 | 86 | 124 | 1.0 | 3.0 | 0.00 | 0.06 | 0.06 | 61 | 1014.9 |
| 20260902195828 | 85 | 146 | 0.0 | 2.0 | 0.00 | 0.06 | 0.06 | 62 | 1014.8 |
| 20260902195327 | 85 | 254 | 3.0 | 5.0 | 0.00 | 0.06 | 0.06 | 61 | 1015.0 |
| 20260902194822 | 86 | 81 | 0.0 | 1.0 | 0.00 | 0.06 | 0.06 | 60 | 1015.0 |
| 20260902194316 | 85 | 128 | 1.0 | 3.0 | 0.00 | 0.06 | 0.06 | 61 | 1015.2 |
| 20260902193812 | 85 | 109 | 1.0 | 2.0 | 0.00 | 0.06 | 0.06 | 62 | 1015.2 |
| 20260902193308 | 86 | 137 | 0.0 | 2.0 | 0.00 | 0.06 | 0.06 | 62 | 1015.4 |
| 20260902192807 | 86 | 149 | 2.0 | 3.0 | 0.00 | 0.06 | 0.06 | 61 | 1015.1 |
| 20260902192307 | 84 | 112 | 0.0 | 3.0 | 0.00 | 0.06 | 0.06 | 62 | 1015.2 |
| 20260902191805 | 84 | 173 | 1.0 | 2.0 | 0.00 | 0.06 | 0.06 | 62 | 1015.1 |
| 20260902191301 | 84 | 144 | 1.0 | 3.0 | 0.00 | 0.06 | 0.06 | 63 | 1015.1 |
| 20260902190756 | 84 | 157 | 0.0 | 2.0 | 0.00 | 0.06 | 0.06 | 61 | 1015.4 |
| 20260902190255 | 84 | 327 | 2.0 | 3.0 | 0.00 | 0.06 | 0.06 | 62 | 1015.0 |
| 20260902185751 | 83 | 13 | 1.0 | 3.0 | 0.00 | 0.06 | 0.06 | 63 | 1015.2 |
| 20260902185246 | 84 | 172 | 1.0 | 3.0 | 0.00 | 0.06 | 0.06 | 62 | 1015.2 |
| 20260902184742 | 83 | 137 | 2.0 | 3.0 | 0.00 | 0.06 | 0.06 | 63 | 1015.1 |
| 20260902184243 | 84 | 175 | 2.0 | 3.0 | 0.00 | 0.06 | 0.06 | 63 | 1015.1 |
| 20260902183738 | 83 | 157 | 0.0 | 1.0 | 0.00 | 0.06 | 0.06 | 64 | 1015.2 |
| 20260902183234 | 84 | 12 | 2.0 | 2.0 | 0.00 | 0.06 | 0.06 | 62 | 1015.2 |
| 20260902182730 | 84 | 51 | 1.0 | 2.0 | 0.00 | 0.06 | 0.06 | 63 | 1015.1 |
| 20260902182227 | 82 | 140 | 0.0 | 2.0 | 0.00 | 0.06 | 0.06 | 67 | 1015.5 |
| 20260902181723 | 83 | 141 | 0.0 | 2.0 | 0.00 | 0.06 | 0.06 | 65 | 1015.4 |
| 20260902181222 | 81 | 158 | 0.0 | 5.0 | 0.00 | 0.06 | 0.06 | 67 | 1015.5 |
| 20260902180717 | 82 | 35 | 2.0 | 3.0 | 0.00 | 0.06 | 0.06 | 66 | 1015.9 |
| 20260902180213 | 81 | 148 | 0.0 | 1.0 | 0.00 | 0.06 | 0.06 | 68 | 1015.8 |
| 20260902175708 | 81 | 92 | 2.0 | 3.0 | 0.00 | 0.06 | 0.06 | 68 | 1016.1 |
| 20260902175204 | 81 | 10 | 2.0 | 2.0 | 0.00 | 0.06 | 0.06 | 67 | 1016.1 |
| 20260902174659 | 81 | 144 | 1.0 | 5.0 | 0.00 | 0.06 | 0.06 | 68 | 1016.3 |
| 20260902174155 | 81 | 131 | 2.0 | 2.0 | 0.00 | 0.06 | 0.06 | 69 | 1016.2 |
| 20260902173650 | 81 | 116 | 0.0 | 3.0 | 0.00 | 0.06 | 0.06 | 68 | 1016.3 |
| 20260902173145 | 80 | 85 | 0.0 | 2.0 | 0.00 | 0.06 | 0.06 | 68 | 1016.6 |
| 20260902172639 | 80 | 141 | 2.0 | 3.0 | 0.00 | 0.06 | 0.06 | 69 | 1016.6 |
| 20260902172138 | 80 | 151 | 1.0 | 5.0 | 0.00 | 0.06 | 0.06 | 71 | 1016.8 |
| 20260902171634 | 79 | 204 | 1.0 | 3.0 | 0.00 | 0.06 | 0.06 | 70 | 1016.8 |
| 20260902171130 | 79 | 142 | 3.0 | 5.0 | 0.00 | 0.06 | 0.06 | 69 | 1016.6 |
| 20260902170625 | 78 | 137 | 1.0 | 3.0 | 0.00 | 0.06 | 0.06 | 72 | 1016.4 |
| 20260902170121 | 79 | 105 | 0.0 | 5.0 | 0.00 | 0.06 | 0.06 | 72 | 1016.2 |
| 20260902165621 | 79 | 89 | 0.0 | 3.0 | 0.00 | 0.06 | 0.06 | 71 | 1016.4 |
| 20260902165115 | 78 | 183 | 2.0 | 2.0 | 0.00 | 0.06 | 0.06 | 71 | 1016.3 |
| 20260902164610 | 79 | 135 | 2.0 | 2.0 | 0.00 | 0.06 | 0.06 | 72 | 1016.4 |
| 20260902164109 | 79 | 118 | 0.0 | 2.0 | 0.00 | 0.06 | 0.06 | 70 | 1016.4 |
| 20260902163605 | 78 | 101 | 1.0 | 1.0 | 0.00 | 0.06 | 0.06 | 72 | 1016.3 |
| 20260902163103 | 78 | 134 | 0.0 | 1.0 | 0.00 | 0.06 | 0.06 | 72 | 1016.3 |
| 20260902162603 | 78 | 159 | 1.0 | 2.0 | 0.00 | 0.06 | 0.06 | 73 | 1016.4 |
| 20260902162057 | 78 | 99 | 1.0 | 2.0 | 0.00 | 0.06 | 0.06 | 73 | 1016.5 |
| 20260902161552 | 77 | 10 | 0.0 | 2.0 | 0.00 | 0.06 | 0.06 | 74 | 1016.5 |
| 20260902161048 | 77 | 122 | 2.0 | 3.0 | 0.00 | 0.06 | 0.06 | 73 | 1016.2 |
| 20260902160544 | 77 | 167 | 3.0 | 3.0 | 0.00 | 0.06 | 0.06 | 73 | 1016.1 |
| 20260902160039 | 77 | 122 | 1.0 | 2.0 | 0.00 | 0.06 | 0.06 | 74 | 1016.1 |
| 20260902155532 | 76 | 216 | 4.0 | 6.0 | 0.00 | 0.06 | 0.06 | 75 | 1015.9 |
| 20260902155031 | 75 | 119 | 0.0 | 1.0 | 0.00 | 0.06 | 0.06 | 77 | 1016.0 |
| 20260902154527 | 76 | 89 | 0.0 | 3.0 | 0.00 | 0.06 | 0.06 | 77 | 1015.9 |
| 20260902154021 | 76 | 142 | 1.0 | 2.0 | 0.00 | 0.06 | 0.06 | 76 | 1016.3 |
| 20260902153520 | 75 | 100 | 2.0 | 3.0 | 0.00 | 0.06 | 0.06 | 77 | 1016.4 |
| 20260902153016 | 75 | 77 | 0.0 | 2.0 | 0.00 | 0.06 | 0.06 | 77 | 1016.1 |
| 20260902152512 | 75 | 87 | 0.0 | 2.0 | 0.00 | 0.06 | 0.06 | 77 | 1016.2 |
| 20260902152007 | 75 | 114 | 2.0 | 2.0 | 0.00 | 0.06 | 0.06 | 78 | 1016.1 |
| 20260902151503 | 74 | 113 | 2.0 | 2.0 | 0.00 | 0.06 | 0.06 | 79 | 1016.2 |
| 20260902150956 | 74 | 108 | 0.0 | 1.0 | 0.00 | 0.06 | 0.06 | 80 | 1016.0 |
| 20260902150452 | 74 | 107 | 1.0 | 2.0 | 0.00 | 0.06 | 0.06 | 80 | 1015.9 |
| 20260902145952 | 73 | 102 | 0.0 | 2.0 | 0.00 | 0.06 | 0.06 | 81 | 1016.1 |
| 20260902145448 | 73 | 117 | 1.0 | 2.0 | 0.00 | 0.06 | 0.06 | 82 | 1015.9 |
| 20260902144947 | 73 | 101 | 1.0 | 1.0 | 0.00 | 0.06 | 0.06 | 83 | 1016.1 |
| 20260902144444 | 73 | 71 | 0.0 | 2.0 | 0.00 | 0.06 | 0.06 | 82 | 1015.9 |
| 20260902143938 | 73 | 82 | 0.0 | 1.0 | 0.00 | 0.06 | 0.06 | 82 | 1016.0 |
| 20260902143434 | 72 | 84 | 0.0 | 1.0 | 0.00 | 0.06 | 0.06 | 83 | 1016.1 |
| 20260902142928 | 71 | 111 | 0.0 | 1.0 | 0.00 | 0.06 | 0.06 | 85 | 1016.1 |
| 20260902142425 | 71 | 144 | 1.0 | 2.0 | 0.00 | 0.06 | 0.06 | 85 | 1016.2 |
| 20260902141920 | 71 | 98 | 1.0 | 2.0 | 0.00 | 0.06 | 0.06 | 85 | 1016.2 |
| 20260902141415 | 72 | 97 | 2.0 | 2.0 | 0.00 | 0.06 | 0.06 | 84 | 1016.2 |
| 20260902140914 | 71 | 78 | 0.0 | 1.0 | 0.00 | 0.06 | 0.06 | 86 | 1016.3 |
| 20260902140410 | 70 | 325 | 1.0 | 1.0 | 0.00 | 0.06 | 0.06 | 87 | 1016.2 |
| 20260902135909 | 69 | 88 | 0.0 | 1.0 | 0.00 | 0.06 | 0.06 | 88 | 1016.2 |
| 20260902135406 | 69 | 87 | 0.0 | 3.0 | 0.00 | 0.06 | 0.06 | 88 | 1016.3 |
| 20260902134904 | 69 | 104 | 0.0 | 1.0 | 0.00 | 0.06 | 0.06 | 88 | 1016.2 |
| 20260902134400 | 69 | 20 | 1.0 | 1.0 | 0.00 | 0.06 | 0.06 | 89 | 1016.1 |
| 20260902133854 | 68 | 72 | 0.0 | 2.0 | 0.00 | 0.06 | 0.06 | 91 | 1016.2 |
| 20260902133349 | 68 | 97 | 0.0 | 0.0 | 0.00 | 0.06 | 0.06 | 91 | 1016.5 |
| 20260902132844 | 67 | 92 | 0.0 | 0.0 | 0.00 | 0.06 | 0.06 | 93 | 1016.4 |
| 20260902132339 | 67 | 58 | 0.0 | 1.0 | 0.00 | 0.06 | 0.06 | 94 | 1016.2 |
| 20260902131835 | 66 | 15 | 0.0 | 2.0 | 0.00 | 0.06 | 0.06 | 95 | 1016.1 |
| 20260902131332 | 65 | 87 | 0.0 | 1.0 | 0.00 | 0.06 | 0.06 | 96 | 1016.1 |
| 20260902130830 | 65 | 62 | 1.0 | 2.0 | 0.00 | 0.06 | 0.06 | 96 | 1016.2 |
| 20260902130327 | 65 | 88 | 1.0 | 1.0 | 0.00 | 0.06 | 0.06 | 96 | 1016.2 |
| 20260902125821 | 65 | 101 | 0.0 | 5.0 | 0.00 | 0.06 | 0.06 | 96 | 1016.1 |
| 20260902125317 | 65 | 125 | 0.0 | 1.0 | 0.00 | 0.06 | 0.06 | 97 | 1016.4 |